User: anonymous   Login
Location: Miami, Florida
(25.6830°N, 80.1700°W)
Time: 20:48:03
(UTC-04:00)
Language:

Tiangong 2 - Orbit

View from above orbital plane
View from above orbital plane
View from above satellite
View from above satellite

Ground track
Ground track

The orbit data is extracted from the following two-line orbital elements,

1 41765U 16057A   18232.43318128  .00003705  00000-0  50488-4 0  9992
2 41765  42.7851 318.3549 0007839 339.5569 118.7811 15.59266394110056
Epoch (UTC): 20 August 2018 10:23:46
Eccentricity: 0.0007839
inclination: 42.7851°
perigee height: 384 km
apogee height: 395 km
right ascension of ascending node: 318.3549°
argument of perigee: 339.5569°
revolutions per day: 15.59266394
mean anomaly at epoch: 118.7811°
orbit number at epoch: 11005

The dashed part of the orbit path shows where the satellite is in the earth's shadow,  

DLR